This demonstration page uses our WeatherBlox Daily Observations layout. Learn more.

Left ArrowRight Arrow

38.83388, -104.82136

Hourly Observations for May 4, 2022

Temp ( °F °C ) Dew Point ( °F °C ) Humidity (%) Winds ( mph kmh ) Pressure ( in mb ) Visibility ( mi km ) Precip ( " mm )
12:58 am 00:58 Mostly Cloudy 46 7.6 34 1 63 63 N 14 22 29.53 1000 10 16 0.00 0.00
1:33 am 01:33 Mostly Cloudy 45 7 37 3 76 76 NNW 13 20 29.54 1000 10 16 0.00 0.00
1:58 am 01:58 Mostly Cloudy 44 6.4 38 3.2 80 80 NNW 14 22 29.53 1000 10 16 0.00 0.00
2:03 am 02:03 Partly Cloudy 43 6 37 3 81 81 NNW 14 22 29.53 1000 10 16 0.00 0.00
2:28 am 02:28 Mostly Cloudy 43 6 37 3 81 81 NNW 15 24 29.52 1000 10 16 0.00 0.00
2:48 am 02:48 Cloudy 41 5 39 4 93 93 N 15 24 29.53 1000 10 16 0.00 0.00
2:58 am 02:58 Cloudy 40 4.6 40 4.2 97 97 NNW 13 20 29.53 1000 10 16 0.00 0.00
3:18 am 03:18 Cloudy 41 5 39 4 93 93 NNW 14 22 29.52 1000 10 16 0.00 0.00
3:28 am 03:28 Cloudy 41 5 37 3 87 87 NNW 15 24 29.52 1000 10 16 0.00 0.00
3:53 am 03:53 Cloudy 41 5 37 3 87 87 NNW 12 19 29.53 1000 10 16 0.00 0.00
3:58 am 03:58 Cloudy 40 4.7 37 3 89 89 N 14 22 29.52 1000 10 16 0.00 0.00
4:13 am 04:13 Cloudy 41 5 37 3 87 87 N 13 20 29.53 1000 10 16 0.00 0.00
4:58 am 04:58 Cloudy 40 4.2 36 2.4 88 88 NNW 14 22 29.56 1001 10 16 0.00 0.00
5:28 am 05:28 Cloudy 39 4 37 3 93 93 N 9 15 29.57 1001 10 16 0.00 0.00
5:58 am 05:58 Cloudy 39 4 38 3.4 96 96 N 8 13 29.55 1001 10 16 0.00 0.00
6:58 am 06:58 Cloudy 38 3.2 38 3.2 100 100 Calm 29.58 1002 8 13 0.00 0.00
7:03 am 07:03 Cloudy 37 3 37 3 100 100 Calm 29.56 1001 8 13 0.00 0.00
7:58 am 07:58 Cloudy with Mist and Fog 38 3.1 38 3.1 100 100 ESE 3 6 29.57 1001 7 11 0.00 0.00
8:58 am 08:58 Cloudy 38 3.1 38 3.1 100 100 Calm 29.60 1002 8 13 0.00 0.00
9:43 am 09:43 Cloudy 37 3 37 3 100 100 NNE 3 6 29.62 1003 10 16 0.00 0.00
9:53 am 09:53 Cloudy 39 4 39 4 100 100 Calm 29.61 1003 10 16 0.00 0.00
9:58 am 09:58 Cloudy 39 3.7 38 3.6 99 99 Calm 29.63 1003 10 16 0.00 0.00
10:58 am 10:58 Cloudy 39 3.8 36 2 88 88 Calm 29.64 1004 10 16 0.00 0.00
11:03 am 11:03 Cloudy 39 4 36 2 87 87 Calm 29.64 1004 10 16 0.00 0.00
11:23 am 11:23 Cloudy 41 5 36 2 81 81 Calm 29.65 1004 10 16 0.00 0.00
11:53 am 11:53 Cloudy 45 7 34 1 66 66 NW 5 7 29.66 1005 10 16 0.00 0.00
11:58 am 11:58 Cloudy 46 7.7 33 0.7 62 62 N 3 6 29.66 1005 10 16 0.00 0.00
12:58 pm 12:58 Mostly Cloudy 52 10.9 33 0.6 49 49 N 13 20 29.70 1006 10 16 0.00 0.00
1:58 pm 13:58 Partly Cloudy 46 7.7 33 0.7 62 62 N 20 31 29.68 1005 10 16 0.00 0.00
2:08 pm 14:08 Mostly Cloudy 45 7 34 1 66 66 N 18 30 29.67 1005 10 16 0.00 0.00
2:28 pm 14:28 Mostly Cloudy 45 7 34 1 66 66 N 14 22 29.68 1005 10 16 0.00 0.00
2:54 pm 14:54 Cloudy with Light Rain 43 6 32 0 66 66 N 17 28 29.68 1005 10 16 0.00 0.00
2:58 pm 14:58 Cloudy with Light Rain 41 5 32 0.2 71 71 N 18 30 29.67 1005 10 16 0.00 0.00
3:02 pm 15:02 Cloudy with Light Rain 41 5 34 1 76 76 NW 20 31 29.67 1005 10 16 0.00 0.00
3:17 pm 15:17 Cloudy with Light Rain 41 5 34 1 76 76 NW 13 20 29.65 1004 9 14 0.00 0.00
3:28 pm 15:28 Cloudy with Nearby Thunderstorms 41 5 34 1 76 76 NW 13 20 29.65 1004 7 11 0.00 0.00
3:41 pm 15:41 Cloudy with Light Rain 39 4 34 1 81 81 NNW 15 24 29.65 1004 3 5 0.00 0.00
3:47 pm 15:47 Cloudy with Rain 37 3 34 1 87 87 N 13 20 29.67 1005 5 8 0.00 0.00
3:48 pm 15:48 Cloudy with Light Snow 37 3 34 1 87 87 N 14 22 29.67 1005 6 10 0.00 0.00
3:58 pm 15:58 Cloudy with Light Snow 37 2.6 34 1.1 90 90 NNW 12 19 29.67 1005 8 13 0.06 1.52
4:06 pm 16:06 Cloudy 37 3 36 2 93 93 NNW 13 20 29.67 1005 9 14 0.00 0.00
4:10 pm 16:10 Cloudy with Light Rain 37 3 36 2 93 93 NNW 12 19 29.67 1005 9 14 0.00 0.00
4:15 pm 16:15 Cloudy 37 3 34 1 87 87 N 13 20 29.67 1005 10 16 0.00 0.00
4:57 pm 16:57 Cloudy with Light Rain 37 3 37 3 100 100 NW 5 7 29.73 1007 10 16 0.00 0.00
4:58 pm 16:58 Cloudy with Light Rain 38 3.1 37 2.7 97 97 NW 6 9 29.73 1007 10 16 0.00 0.00
5:23 pm 17:23 Cloudy with Light Rain 37 3 37 3 100 100 Calm 29.74 1007 10 16 0.00 0.00
5:34 pm 17:34 Cloudy 37 3 36 2 93 93 N 7 11 29.73 1007 10 16 0.00 0.00
5:54 pm 17:54 Cloudy 37 3 36 2 93 93 N 9 15 29.71 1006 10 16 0.00 0.00
5:58 pm 17:58 Cloudy 37 2.6 36 2.2 97 97 N 10 17 29.71 1006 10 16 0.04 1.02
6:04 pm 18:04 Cloudy with Light Rain 37 3 37 3 100 100 NNW 10 17 29.71 1006 10 16 0.00 0.00
6:25 pm 18:25 Cloudy 37 3 37 3 100 100 Calm 29.75 1008 10 16 0.00 0.00
6:58 pm 18:58 Cloudy 38 3.5 38 3.4 99 99 NNW 10 17 29.74 1007 10 16 0.00 0.00
7:58 pm 19:58 Cloudy 41 4.8 32 0.2 72 72 N 15 24 29.75 1007 10 16 0.00 0.00
8:58 pm 20:58 Cloudy 41 5.1 35 1.4 77 77 NW 8 13 29.80 1009 10 16 0.00 0.00
9:03 pm 21:03 Cloudy 41 5 36 2 81 81 NNW 7 11 29.81 1010 10 16 0.00 0.00
9:15 pm 21:15 Cloudy with Light Rain 41 5 36 2 81 81 N 8 13 29.81 1010 10 16 0.00 0.00
9:32 pm 21:32 Cloudy 39 4 34 1 81 81 NW 10 17 29.79 1009 10 16 0.00 0.00
9:52 pm 21:52 Cloudy with Light Rain 39 4 36 2 87 87 NW 13 20 29.78 1008 10 16 0.00 0.00
9:57 pm 21:57 Cloudy with Light Rain 39 4 36 2 87 87 NW 10 17 29.78 1008 10 16 0.00 0.00
9:58 pm 21:58 Cloudy with Light Rain 39 4.1 35 1.8 85 85 NW 9 15 29.78 1008 10 16 0.04 1.02
10:13 pm 22:13 Cloudy 41 5 34 1 76 76 NW 12 19 29.77 1008 10 16 0.00 0.00
10:58 pm 22:58 Cloudy 39 3.9 35 1.6 85 85 Calm 29.76 1008 10 16 0.00 0.00
11:58 pm 23:58 Mostly Clear 38 3.6 34 1 83 83 Calm 29.69 1005 10 16 0.00 0.00

Powered by AerisWeather